Past Weather in Karlsruhe, Baden-Württemberg, Germany — Yesterday or Further Back
Flag for Germany

Past Weather in Karlsruhe, Baden-Württemberg, Germany — Yesterday and Last 2 Weeks

Now
63 °F

Passing clouds.


Feels Like: 63 °F
Forecast: 68 / 54 °F
Wind: 10 mph from Southwest

Location: Karlsruhe - Baden Wurttemberg
Current Time: Oct 22, 2020 at 12:32:01 am
Latest Report: Oct 21, 2020 at 11:50 pm
Visibility: N/A
Pressure29.92 "Hg
Humidity: 59%
Dew Point: 48 °F
Location of KarlsruheLocation

Past Weather in Karlsruhe — Graph

°F

Karlsruhe Temperature Yesterday

Maximum temperature yesterday: 66 °F (at 6:20 pm)
Minimum temperature yesterday: 48 °F (at 4:20 am)
Average temperature yesterday: 57 °F

High & Low Weather Summary for the Past Weeks

 TemperatureHumidityPressure
High66 °F (Oct 9, 1:50 pm)100% (Oct 10, 7:50 am)30.24 "Hg (Oct 10, 7:50 am)
Low34 °F (Oct 20, 6:20 am)47% (Oct 19, 3:20 pm)29.77 "Hg (Oct 6, 11:20 pm)
Average50 °F84%30.06 "Hg
* Reported Oct 6 11:20 pm — Oct 21 11:20 pm, Karlsruhe. Weather by CustomWeather, © 2020

Note: Actual official high and low records may vary slightly from our data, if they occured in-between our weather recording intervals... More about our weather records

Karlsruhe Weather History for October 20, 2020

Scroll right to see more
 ConditionsComfort  
Time TempWeatherWind HumidityBarometerVisibility
12:20 am
Tue, Oct 20
37 °FPassing clouds.2 mph100%30.07 "Hg1 mi
12:50 am37 °FPassing clouds.5 mph93%30.04 "Hg6 mi
1:20 am37 °FChilly.2 mph93%30.04 "Hg1 mi
1:50 am37 °FPassing clouds.2 mph93%30.04 "Hg1 mi
2:20 am36 °FChilly.3 mph100%30.04 "HgN/A
2:50 am36 °FPassing clouds.1 mph100%30.04 "Hg4 mi
3:20 am36 °FPassing clouds.2 mph100%30.04 "HgN/A
3:50 am36 °FFog.1 mph93%30.01 "HgN/A
4:20 am36 °FFog.No wind93%30.01 "Hg3 mi
4:50 am36 °FFog.No wind93%30.01 "Hg2 mi
5:20 am36 °FFog.No wind93%30.01 "Hg2 mi
5:50 am36 °FFog.No wind93%30.01 "Hg2 mi
6:20 am34 °FFog.3 mph100%30.01 "Hg2 mi
6:50 am34 °FFog.3 mph100%29.98 "Hg1 mi
7:20 am36 °FFog.2 mph93%29.98 "Hg1 mi
7:50 am34 °FFog.2 mph100%29.98 "Hg1 mi
8:20 am37 °FFog.1 mph93%29.98 "Hg1 mi
8:50 am37 °FFog.1 mph93%30.01 "Hg1 mi
9:20 am37 °FScattered clouds.1 mph100%30.01 "Hg2 mi
9:50 am39 °FLight fog.2 mph93%30.01 "Hg2 mi
10:20 am41 °FSunny.1 mph93%30.01 "Hg10 mi
10:50 am43 °FSunny.2 mph93%30.01 "Hg10 mi
11:20 am46 °FSunny.2 mph87%29.98 "Hg10 mi
11:50 am50 °FSunny.2 mph82%30.01 "Hg10 mi
12:20 pm52 °FPassing clouds.3 mph77%29.98 "HgN/A
12:50 pm54 °FSunny.2 mph72%29.98 "Hg10 mi
1:50 pm57 °FSunny.2 mph72%29.95 "Hg10 mi
2:20 pm55 °FSunny.2 mph72%29.95 "Hg10 mi
2:50 pm57 °FPassing clouds.3 mph67%29.95 "HgN/A
3:20 pm57 °FPassing clouds.6 mph67%29.95 "HgN/A
4:20 pm57 °FSunny.3 mph72%29.95 "Hg10 mi
4:50 pm57 °FSunny.2 mph77%29.95 "Hg10 mi
5:20 pm57 °FSunny.2 mph72%29.92 "Hg10 mi
5:50 pm55 °FSunny.2 mph77%29.92 "Hg10 mi
6:20 pm54 °FSunny.2 mph88%29.95 "Hg10 mi
6:50 pm54 °FClear.No wind88%29.95 "Hg10 mi
7:20 pm52 °FClear.No wind88%29.95 "Hg10 mi
7:50 pm52 °FClear.1 mph88%29.95 "Hg10 mi
8:50 pm52 °FClear.2 mph94%29.92 "Hg10 mi
9:20 pm52 °FClear.3 mph94%29.92 "Hg10 mi
9:50 pm52 °FClear.2 mph94%29.89 "Hg10 mi
10:20 pm52 °FClear.5 mph94%29.89 "Hg10 mi
10:50 pm54 °FPassing clouds.3 mph88%29.89 "HgN/A
11:20 pm54 °FPassing clouds.3 mph88%29.86 "HgN/A
11:50 pm52 °FClear.2 mph94%29.86 "Hg10 mi
Weather by CustomWeather, © 2020

See weather overview